Flag for Saint Lucia Weather past 2 weeks in Vieux Fort, Saint Lucia

Now
79 °F

Passing clouds.


Feels Like: 81 °F
Forecast: 79 / 82 °F
Wind: 25 mph from East

Location: Hewanorra International Airport

Current Time: Feb 26, 2015 at 8:50:56 PM

Latest Report: Feb 26, 2015 at 8:00 PM


Visibility: N/A

Pressure: 30.01 "Hg

Humidity: 74%

Dew point: 70 °F

Location of Vieux FortLocation

Historic Weather in Vieux Fort — Graph

°F

Vieux Fort temperature yesterday

Maximum temperature yesterday: 82 °F (at 5:00 PM)
Minimum temperature yesterday: 77 °F (at 1:00 AM)
Average temperature yesterday: 79 °F

Past Weeks' High & Low Weather Summary

 TemperatureHumidityPressure
High86 °F (Feb 12, 1:00 PM)94% (Feb 14, 10:00 AM)30.09 "Hg (Feb 14, 10:00 AM)
Low73 °F (Feb 23, 3:00 AM)62% (Feb 15, 10:00 AM)29.89 "Hg (Feb 19, 4:00 PM)
Average80 °F76%29.99 "Hg
* Reported Feb 11 7:00 PM — Feb 26 7:00 PM, Vieux Fort, Weather by CustomWeather, © 2015

Note: Actual official high and low records may vary slightly from our data, if they occured in-between our weather recording intervals... More about our weather records

Advertising

Vieux Fort weather history for previous 24 hours

 ConditionsComfort  
Time TempWeatherWind HumidityBarometerVisibility
7:00 PM
Thu, Feb 26
81 °FPassing clouds.23 mph74%29.98 "HgN/A
6:00 PM81 °FPassing clouds.21 mph74%29.95 "HgN/A
5:00 PM82 °FPassing clouds.23 mph66%29.95 "HgN/A
4:00 PM82 °FScattered clouds.23 mph70%29.95 "HgN/A
3:00 PM84 °FPassing clouds.20 mph62%29.95 "HgN/A
2:00 PM84 °FScattered clouds.21 mph70%29.98 "HgN/A
1:00 PM84 °FScattered clouds.24 mph70%30.01 "HgN/A
12:00 PM84 °FScattered clouds.21 mph66%30.04 "HgN/A
11:00 AM84 °FScattered clouds.23 mph66%30.04 "HgN/A
10:00 AM82 °FPartly sunny.23 mph70%30.07 "HgN/A
9:00 AM82 °FPartly sunny.17 mph66%30.04 "HgN/A
8:00 AM81 °FPartly sunny.16 mph70%30.04 "HgN/A
7:00 AM79 °FScattered clouds.18 mph74%30.01 "HgN/A
6:00 AM77 °FPassing clouds.17 mph74%29.98 "HgN/A
5:00 AM77 °FPassing clouds.17 mph74%29.98 "HgN/A
4:00 AM79 °FPassing clouds.18 mph70%29.98 "HgN/A
3:00 AM79 °FPassing clouds.20 mph74%29.98 "HgN/A
8:00 PM
Wed, Feb 25
79 °FPassing clouds.21 mph70%30.01 "HgN/A
Weather by CustomWeather, © 2015

See weather overviewHow to use our weather pages